Year,Month,Day,Hour,Minute,Value (Times are PST for temperature in C)
2011,10,16,00,00,4.80
2011,10,16,00,01,4.80
2011,10,16,00,02,4.80
2011,10,16,00,03,4.80
2011,10,16,00,04,4.80
2011,10,16,00,05,4.80
2011,10,16,00,06,4.90
2011,10,16,00,07,4.80
2011,10,16,00,08,4.80
2011,10,16,00,09,4.80
2011,10,16,00,10,4.80
2011,10,16,00,11,4.70
2011,10,16,00,12,4.70
2011,10,16,00,16,4.40
2011,10,16,00,17,4.40
2011,10,16,00,18,4.40
2011,10,16,00,19,4.30
2011,10,16,00,20,4.20
2011,10,16,00,21,4.20
2011,10,16,00,22,4.20
2011,10,16,00,23,4.20
2011,10,16,00,24,4.20
2011,10,16,00,25,4.30
2011,10,16,00,26,4.40
2011,10,16,00,27,4.50
2011,10,16,00,28,4.60
2011,10,16,00,29,4.60
2011,10,16,00,30,4.60
2011,10,16,00,31,4.50
2011,10,16,00,32,4.40
2011,10,16,00,33,4.40
2011,10,16,00,34,4.50
2011,10,16,00,35,4.50
2011,10,16,00,36,4.60
2011,10,16,00,37,4.60
2011,10,16,00,38,4.60
2011,10,16,00,39,4.60
2011,10,16,00,40,4.60
2011,10,16,00,41,4.60
2011,10,16,00,42,4.60
2011,10,16,00,43,4.60
2011,10,16,00,44,4.60
2011,10,16,00,45,4.60
2011,10,16,00,46,4.60
2011,10,16,00,47,4.60
2011,10,16,00,48,4.60
2011,10,16,00,49,4.50
2011,10,16,00,50,4.50
2011,10,16,00,51,4.50
2011,10,16,00,52,4.40
2011,10,16,00,53,4.40
2011,10,16,00,54,4.40
2011,10,16,00,55,4.40
2011,10,16,00,56,4.30
2011,10,16,00,57,4.20
2011,10,16,00,58,4.20
2011,10,16,00,59,4.10
2011,10,16,01,00,4.00
2011,10,16,01,01,3.90
2011,10,16,01,03,3.90
2011,10,16,01,04,3.90
2011,10,16,01,05,3.80
2011,10,16,01,06,3.90
2011,10,16,01,07,3.90
2011,10,16,01,08,3.90
2011,10,16,01,09,3.90
2011,10,16,01,10,3.90
2011,10,16,01,11,3.90
2011,10,16,01,12,3.90
2011,10,16,01,13,3.90
2011,10,16,01,14,3.90
2011,10,16,01,15,3.90
2011,10,16,01,16,3.90
2011,10,16,01,17,3.90
2011,10,16,01,18,4.00
2011,10,16,01,19,4.00
2011,10,16,01,20,4.00
2011,10,16,01,21,4.00
2011,10,16,01,22,4.00
2011,10,16,01,23,4.00
2011,10,16,01,24,4.00
2011,10,16,01,25,4.00
2011,10,16,01,26,4.00
2011,10,16,01,27,4.00
2011,10,16,01,28,3.90
2011,10,16,01,29,3.90
2011,10,16,01,30,3.90
2011,10,16,01,31,3.90
2011,10,16,01,32,4.00
2011,10,16,01,33,4.10
2011,10,16,01,34,4.10
2011,10,16,01,35,4.20
2011,10,16,01,36,4.30
2011,10,16,01,37,4.30
2011,10,16,01,38,4.40
2011,10,16,01,39,4.50
2011,10,16,01,40,4.50
2011,10,16,01,41,4.50
2011,10,16,01,42,4.60
2011,10,16,01,43,4.60
2011,10,16,01,44,4.60
2011,10,16,01,45,4.60
2011,10,16,01,46,4.50
2011,10,16,01,47,4.50
2011,10,16,01,48,4.50
2011,10,16,01,49,4.40
2011,10,16,01,50,4.40
2011,10,16,01,51,4.40
2011,10,16,01,52,4.40
2011,10,16,01,53,4.30
2011,10,16,01,54,4.30
2011,10,16,01,55,4.30
2011,10,16,01,56,4.30
2011,10,16,01,57,4.20
2011,10,16,01,58,4.20
2011,10,16,01,59,4.20
2011,10,16,02,00,4.20
2011,10,16,02,01,4.20
2011,10,16,02,02,4.20
2011,10,16,02,03,4.10
2011,10,16,02,04,4.10
2011,10,16,02,05,4.00
2011,10,16,02,06,4.00
2011,10,16,02,07,4.00
2011,10,16,02,08,4.00
2011,10,16,02,09,4.00
2011,10,16,02,10,4.00
2011,10,16,02,11,4.00
2011,10,16,02,12,4.00
2011,10,16,02,13,4.00
2011,10,16,02,14,4.00
2011,10,16,02,15,4.00
2011,10,16,02,16,4.00
2011,10,16,02,17,4.00
2011,10,16,02,18,4.00
2011,10,16,02,19,4.00
2011,10,16,02,20,4.00
2011,10,16,02,21,4.00
2011,10,16,02,22,4.10
2011,10,16,02,23,4.10
2011,10,16,02,24,4.10
2011,10,16,02,25,4.10
2011,10,16,02,26,4.10
2011,10,16,02,27,4.10
2011,10,16,02,28,4.00
2011,10,16,02,29,4.00
2011,10,16,02,30,4.00
2011,10,16,02,31,4.00
2011,10,16,02,32,4.00
2011,10,16,02,33,4.10
2011,10,16,02,34,4.00
2011,10,16,02,35,4.00
2011,10,16,02,36,4.00
2011,10,16,02,37,4.00
2011,10,16,02,38,3.90
2011,10,16,02,39,3.90
2011,10,16,02,40,3.90
2011,10,16,02,41,3.90
2011,10,16,02,42,3.90
2011,10,16,02,43,3.90
2011,10,16,02,44,3.90
2011,10,16,02,45,3.90
2011,10,16,02,46,3.90
2011,10,16,02,47,3.90
2011,10,16,02,48,3.80
2011,10,16,02,49,3.80
2011,10,16,02,50,3.80
2011,10,16,02,51,3.80
2011,10,16,02,52,3.90
2011,10,16,02,53,3.90
2011,10,16,02,54,3.90
2011,10,16,02,55,4.00
2011,10,16,02,56,4.00
2011,10,16,02,57,4.10
2011,10,16,02,58,4.10
2011,10,16,02,59,4.20
2011,10,16,03,00,4.20
2011,10,16,03,01,4.20
2011,10,16,03,02,4.20
2011,10,16,03,03,4.20
2011,10,16,03,04,4.20
2011,10,16,03,05,4.20
2011,10,16,03,06,4.20
2011,10,16,03,07,4.20
2011,10,16,03,08,4.20
2011,10,16,03,09,4.20
2011,10,16,03,10,4.20
2011,10,16,03,11,4.20
2011,10,16,03,12,4.20
2011,10,16,03,13,4.20
2011,10,16,03,14,4.20
2011,10,16,03,15,4.20
2011,10,16,03,16,4.30
2011,10,16,03,17,4.30
2011,10,16,03,18,4.40
2011,10,16,03,19,4.40
2011,10,16,03,20,4.40
2011,10,16,03,21,4.40
2011,10,16,03,22,4.40
2011,10,16,03,23,4.40
2011,10,16,03,24,4.40
2011,10,16,03,25,4.40
2011,10,16,03,26,4.30
2011,10,16,03,27,4.30
2011,10,16,03,28,4.20
2011,10,16,03,29,4.20
2011,10,16,03,30,4.20
2011,10,16,03,31,4.20
2011,10,16,03,32,4.20
2011,10,16,03,33,4.20
2011,10,16,03,34,4.20
2011,10,16,03,35,4.10
2011,10,16,03,36,4.10
2011,10,16,03,37,4.10
2011,10,16,03,38,4.00
2011,10,16,03,39,4.00
2011,10,16,03,40,4.00
2011,10,16,03,41,4.00
2011,10,16,03,42,4.00
2011,10,16,03,43,4.00
2011,10,16,03,44,3.90
2011,10,16,03,45,3.90
2011,10,16,03,46,3.90
2011,10,16,03,47,3.90
2011,10,16,03,48,3.90
2011,10,16,03,49,3.90
2011,10,16,03,50,3.90
2011,10,16,03,51,4.00
2011,10,16,03,52,4.00
2011,10,16,03,53,4.00
2011,10,16,03,54,4.00
2011,10,16,03,55,4.10
2011,10,16,03,56,4.10
2011,10,16,03,57,4.00
2011,10,16,03,58,4.00
2011,10,16,03,59,4.00
2011,10,16,04,00,4.00
2011,10,16,04,01,3.90
2011,10,16,04,02,3.90
2011,10,16,04,03,3.90
2011,10,16,04,04,3.90
2011,10,16,04,05,3.90
2011,10,16,04,06,4.00
2011,10,16,04,07,4.00
2011,10,16,04,08,4.00
2011,10,16,04,09,4.00
2011,10,16,04,10,3.90
2011,10,16,04,11,3.90
2011,10,16,04,12,3.90
2011,10,16,04,13,3.90
2011,10,16,04,14,3.90
2011,10,16,04,15,3.80
2011,10,16,04,16,3.80
2011,10,16,04,17,3.80
2011,10,16,04,18,3.80
2011,10,16,04,19,3.80
2011,10,16,04,20,3.70
2011,10,16,04,21,3.70
2011,10,16,04,22,3.80
2011,10,16,04,23,3.80
2011,10,16,04,24,3.80
2011,10,16,04,25,3.80
2011,10,16,04,26,3.70
2011,10,16,04,27,3.70
2011,10,16,04,28,3.60
2011,10,16,04,29,3.60
2011,10,16,04,30,3.50
2011,10,16,04,31,3.50
2011,10,16,04,32,3.40
2011,10,16,04,33,3.40
2011,10,16,04,34,3.40
2011,10,16,04,35,3.30
2011,10,16,04,36,3.30
2011,10,16,04,37,3.30
2011,10,16,04,38,3.30
2011,10,16,04,39,3.30
2011,10,16,04,40,3.30
2011,10,16,04,41,3.40
2011,10,16,04,42,3.40
2011,10,16,04,43,3.40
2011,10,16,04,44,3.40
2011,10,16,04,45,3.50
2011,10,16,04,46,3.50
2011,10,16,04,47,3.50
2011,10,16,04,48,3.40
2011,10,16,04,49,3.40
2011,10,16,04,50,3.30
2011,10,16,04,51,3.30
2011,10,16,04,52,3.30
2011,10,16,04,53,3.20
2011,10,16,04,54,3.20
2011,10,16,04,55,3.20
2011,10,16,04,56,3.20
2011,10,16,04,57,3.20
2011,10,16,04,58,3.10
2011,10,16,04,59,3.10
2011,10,16,05,00,3.10
2011,10,16,05,01,3.10
2011,10,16,05,02,3.10
2011,10,16,05,03,3.10
2011,10,16,05,04,3.10
2011,10,16,05,05,3.10
2011,10,16,05,06,3.10
2011,10,16,05,07,3.10
2011,10,16,05,08,3.10
2011,10,16,05,09,3.10
2011,10,16,05,10,3.10
2011,10,16,05,11,3.20
2011,10,16,05,12,3.20
2011,10,16,05,13,3.20
2011,10,16,05,14,3.20
2011,10,16,05,15,3.20
2011,10,16,05,16,3.30
2011,10,16,05,17,3.30
2011,10,16,05,18,3.30
2011,10,16,05,19,3.30
2011,10,16,05,20,3.30
2011,10,16,05,21,3.30
2011,10,16,05,22,3.40
2011,10,16,05,23,3.40
2011,10,16,05,24,3.40
2011,10,16,05,25,3.40
2011,10,16,05,26,3.40
2011,10,16,05,27,3.50
2011,10,16,05,28,3.50
2011,10,16,05,29,3.50
2011,10,16,05,30,3.50
2011,10,16,05,31,3.50
2011,10,16,05,32,3.50
2011,10,16,05,33,3.50
2011,10,16,05,34,3.50
2011,10,16,05,35,3.50
2011,10,16,05,36,3.40
2011,10,16,05,37,3.40
2011,10,16,05,38,3.40
2011,10,16,05,39,3.30
2011,10,16,05,40,3.30
2011,10,16,05,41,3.30
2011,10,16,05,42,3.30
2011,10,16,05,43,3.30
2011,10,16,05,44,3.30
2011,10,16,05,45,3.30
2011,10,16,05,46,3.30
2011,10,16,05,47,3.20
2011,10,16,05,48,3.20
2011,10,16,05,49,3.20
2011,10,16,05,50,3.20
2011,10,16,05,51,3.20
2011,10,16,05,52,3.10
2011,10,16,05,53,3.10
2011,10,16,05,54,3.10
2011,10,16,05,55,3.10
2011,10,16,05,56,3.10
2011,10,16,05,57,3.10
2011,10,16,05,58,3.10
2011,10,16,05,59,3.10
2011,10,16,06,00,3.10
2011,10,16,06,01,3.10
2011,10,16,06,02,3.10
2011,10,16,06,03,3.10
2011,10,16,06,04,3.10
2011,10,16,06,05,3.10
2011,10,16,06,06,3.10
2011,10,16,06,07,3.20
2011,10,16,06,08,3.20
2011,10,16,06,09,3.20
2011,10,16,06,10,3.10
2011,10,16,06,11,3.10
2011,10,16,06,12,3.10
2011,10,16,06,13,3.10
2011,10,16,06,14,3.10
2011,10,16,06,15,3.10
2011,10,16,06,16,3.10
2011,10,16,06,17,3.10
2011,10,16,06,18,3.20
2011,10,16,06,19,3.20
2011,10,16,06,20,3.20
2011,10,16,06,21,3.20
2011,10,16,06,22,3.20
2011,10,16,06,23,3.10
2011,10,16,06,24,3.10
2011,10,16,06,25,3.10
2011,10,16,06,26,3.10
2011,10,16,06,27,3.10
2011,10,16,06,28,3.10
2011,10,16,06,29,3.10
2011,10,16,06,30,3.10
2011,10,16,06,31,3.10
2011,10,16,06,32,3.20
2011,10,16,06,33,3.20
2011,10,16,06,34,3.20
2011,10,16,06,35,3.20
2011,10,16,06,36,3.20
2011,10,16,06,37,3.20
2011,10,16,06,38,3.20
2011,10,16,06,39,3.20
2011,10,16,06,40,3.20
2011,10,16,06,41,3.20
2011,10,16,06,42,3.20
2011,10,16,06,43,3.20
2011,10,16,06,44,3.20
2011,10,16,06,45,3.20
2011,10,16,06,46,3.20
2011,10,16,06,47,3.20
2011,10,16,06,48,3.30
2011,10,16,06,49,3.30
2011,10,16,06,50,3.30
2011,10,16,06,51,3.30
2011,10,16,06,52,3.30
2011,10,16,06,53,3.30
2011,10,16,06,54,3.20
2011,10,16,06,55,3.20
2011,10,16,06,56,3.20
2011,10,16,06,57,3.20
2011,10,16,06,58,3.20
2011,10,16,06,59,3.20
2011,10,16,07,00,3.20
2011,10,16,07,01,3.20
2011,10,16,07,02,3.20
2011,10,16,07,03,3.20
2011,10,16,07,04,3.20
2011,10,16,07,05,3.20
2011,10,16,07,06,3.20
2011,10,16,07,07,3.20
2011,10,16,07,08,3.20
2011,10,16,07,09,3.30
2011,10,16,07,10,3.30
2011,10,16,07,11,3.30
2011,10,16,07,12,3.30
2011,10,16,07,13,3.30
2011,10,16,07,14,3.30
2011,10,16,07,15,3.30
2011,10,16,07,16,3.30
2011,10,16,07,17,3.30
2011,10,16,07,18,3.30
2011,10,16,07,19,3.30
2011,10,16,07,20,3.30
2011,10,16,07,21,3.30
2011,10,16,07,22,3.30
2011,10,16,07,23,3.30
2011,10,16,07,24,3.30
2011,10,16,07,25,3.20
2011,10,16,07,26,3.20
2011,10,16,07,27,3.20
2011,10,16,07,28,3.20
2011,10,16,07,29,3.20
2011,10,16,07,30,3.20
2011,10,16,07,31,3.20
2011,10,16,07,32,3.20
2011,10,16,07,33,3.20
2011,10,16,07,34,3.20
2011,10,16,07,35,3.20
2011,10,16,07,36,3.20
2011,10,16,07,37,3.20
2011,10,16,07,38,3.20
2011,10,16,07,39,3.20
2011,10,16,07,40,3.20
2011,10,16,07,41,3.10
2011,10,16,07,42,3.10
2011,10,16,07,43,3.10
2011,10,16,07,44,3.10
2011,10,16,07,45,3.10
2011,10,16,07,46,3.10
2011,10,16,07,47,3.10
2011,10,16,07,48,3.10
2011,10,16,07,49,3.10
2011,10,16,07,50,3.10
2011,10,16,07,51,3.10
2011,10,16,07,52,3.10
2011,10,16,07,53,3.10
2011,10,16,07,54,3.10
2011,10,16,07,55,3.10
2011,10,16,07,56,3.10
2011,10,16,07,57,3.10
2011,10,16,07,58,3.10
2011,10,16,07,59,3.10
2011,10,16,08,00,3.10
2011,10,16,08,01,3.10
2011,10,16,08,02,3.10
2011,10,16,08,03,3.10
2011,10,16,08,04,3.10
2011,10,16,08,05,3.10
2011,10,16,08,06,3.10
2011,10,16,08,07,3.10
2011,10,16,08,08,3.10
2011,10,16,08,09,3.10
2011,10,16,08,10,3.20
2011,10,16,08,11,3.20
2011,10,16,08,12,3.20
2011,10,16,08,13,3.20
2011,10,16,08,14,3.20
2011,10,16,08,15,3.30
2011,10,16,08,16,3.30
2011,10,16,08,17,3.30
2011,10,16,08,18,3.30
2011,10,16,08,19,3.30
2011,10,16,08,20,3.30
2011,10,16,08,21,3.30
2011,10,16,08,22,3.30
2011,10,16,08,23,3.30
2011,10,16,08,24,3.30
2011,10,16,08,25,3.40
2011,10,16,08,26,3.40
2011,10,16,08,27,3.40
2011,10,16,08,28,3.50
2011,10,16,08,29,3.50
2011,10,16,08,30,3.50
2011,10,16,08,31,3.50
2011,10,16,08,32,3.60
2011,10,16,08,33,3.60
2011,10,16,08,34,3.60
2011,10,16,08,35,3.70
2011,10,16,08,36,3.70
2011,10,16,08,37,3.70
2011,10,16,08,38,3.80
2011,10,16,08,39,3.80
2011,10,16,08,40,3.80
2011,10,16,08,41,3.90
2011,10,16,08,42,4.00
2011,10,16,08,43,4.00
2011,10,16,08,44,4.00
2011,10,16,08,45,4.10
2011,10,16,08,46,4.10
2011,10,16,08,47,4.20
2011,10,16,08,48,4.20
2011,10,16,08,49,4.20
2011,10,16,08,50,4.30
2011,10,16,08,51,4.30
2011,10,16,08,52,4.40
2011,10,16,08,53,4.40
2011,10,16,08,54,4.50
2011,10,16,08,55,4.50
2011,10,16,08,56,4.60
2011,10,16,08,57,4.60
2011,10,16,08,58,4.70
2011,10,16,08,59,4.70
2011,10,16,09,00,4.80
2011,10,16,09,01,4.80
2011,10,16,09,02,4.90
2011,10,16,09,03,4.90
2011,10,16,09,04,5.00
2011,10,16,09,05,5.10
2011,10,16,09,06,5.10
2011,10,16,09,07,5.20
2011,10,16,09,08,5.20
2011,10,16,09,09,5.30
2011,10,16,09,10,5.30
2011,10,16,09,11,5.40
2011,10,16,09,12,5.40
2011,10,16,09,13,5.50
2011,10,16,09,14,5.60
2011,10,16,09,15,5.60
2011,10,16,09,16,5.70
2011,10,16,09,17,5.70
2011,10,16,09,18,5.80
2011,10,16,09,19,5.90
2011,10,16,09,20,6.00
2011,10,16,09,21,6.00
2011,10,16,09,22,6.10
2011,10,16,09,23,6.20
2011,10,16,09,24,6.30
2011,10,16,09,25,6.40
2011,10,16,09,26,6.50
2011,10,16,09,27,6.60
2011,10,16,09,28,6.60
2011,10,16,09,29,6.70
2011,10,16,09,30,6.80
2011,10,16,09,31,6.80
2011,10,16,09,32,6.90
2011,10,16,09,33,7.00
2011,10,16,09,34,7.00
2011,10,16,09,35,7.10
2011,10,16,09,36,7.20
2011,10,16,09,37,7.30
2011,10,16,09,38,7.40
2011,10,16,09,39,7.50
2011,10,16,09,40,7.50
2011,10,16,09,41,7.60
2011,10,16,09,42,7.70
2011,10,16,09,43,7.80
2011,10,16,09,44,7.80
2011,10,16,09,45,7.90
2011,10,16,09,46,7.90
2011,10,16,09,47,8.00
2011,10,16,09,48,8.00
2011,10,16,09,49,8.10
2011,10,16,09,50,8.20
2011,10,16,09,51,8.20
2011,10,16,09,52,8.30
2011,10,16,09,53,8.40
2011,10,16,09,54,8.50
2011,10,16,09,55,8.60
2011,10,16,09,56,8.70
2011,10,16,09,57,8.90
2011,10,16,09,58,9.00
2011,10,16,09,59,9.20
2011,10,16,10,00,9.40
2011,10,16,10,01,9.60
2011,10,16,10,02,9.70
2011,10,16,10,03,9.80
2011,10,16,10,04,9.90
2011,10,16,10,05,10.00
2011,10,16,10,06,10.10
2011,10,16,10,07,10.10
2011,10,16,10,08,10.20
2011,10,16,10,09,10.30
2011,10,16,10,10,10.40
2011,10,16,10,11,10.50
2011,10,16,10,12,10.60
2011,10,16,10,13,10.60
2011,10,16,10,14,10.60
2011,10,16,10,15,10.60
2011,10,16,10,16,10.60
2011,10,16,10,17,10.60
2011,10,16,10,18,10.60
2011,10,16,10,19,10.60
2011,10,16,10,20,10.60
2011,10,16,10,21,10.60
2011,10,16,10,22,10.60
2011,10,16,10,23,10.60
2011,10,16,10,24,10.60
2011,10,16,10,25,10.60
2011,10,16,10,26,10.60
2011,10,16,10,27,10.50
2011,10,16,10,28,10.40
2011,10,16,10,29,10.40
2011,10,16,10,30,10.40
2011,10,16,10,31,10.40
2011,10,16,10,32,10.40
2011,10,16,10,33,10.40
2011,10,16,10,34,10.40
2011,10,16,10,35,10.40
2011,10,16,10,36,10.40
2011,10,16,10,37,10.30
2011,10,16,10,38,10.30
2011,10,16,10,39,10.20
2011,10,16,10,40,10.20
2011,10,16,10,41,10.30
2011,10,16,10,42,10.40
2011,10,16,10,43,10.40
2011,10,16,10,44,10.40
2011,10,16,10,45,10.50
2011,10,16,10,46,10.60
2011,10,16,10,47,10.60
2011,10,16,10,48,10.60
2011,10,16,10,49,10.60
2011,10,16,10,50,10.60
2011,10,16,10,51,10.60
2011,10,16,10,52,10.60
2011,10,16,10,53,10.60
2011,10,16,10,54,10.60
2011,10,16,10,55,10.50
2011,10,16,10,56,10.40
2011,10,16,10,57,10.40
2011,10,16,10,58,10.50
2011,10,16,10,59,10.60
2011,10,16,11,00,10.60
2011,10,16,11,01,10.60
2011,10,16,11,02,10.70
2011,10,16,11,03,10.70
2011,10,16,11,04,10.70
2011,10,16,11,05,10.70
2011,10,16,11,06,10.70
2011,10,16,11,07,10.70
2011,10,16,11,08,10.80
2011,10,16,11,09,10.90
2011,10,16,11,10,10.90
2011,10,16,11,11,10.90
2011,10,16,11,12,10.90
2011,10,16,11,13,10.90
2011,10,16,11,14,10.80
2011,10,16,11,15,10.80
2011,10,16,11,16,10.80
2011,10,16,11,17,10.90
2011,10,16,11,18,10.90
2011,10,16,11,19,10.90
2011,10,16,11,20,10.90
2011,10,16,11,21,10.80
2011,10,16,11,22,10.80
2011,10,16,11,23,10.70
2011,10,16,11,24,10.60
2011,10,16,11,25,10.60
2011,10,16,11,26,10.60
2011,10,16,11,27,10.60
2011,10,16,11,28,10.60
2011,10,16,11,29,10.70
2011,10,16,11,30,10.70
2011,10,16,11,31,10.80
2011,10,16,11,32,10.90
2011,10,16,11,33,10.90
2011,10,16,11,34,10.90
2011,10,16,11,35,10.90
2011,10,16,11,36,10.90
2011,10,16,11,37,10.90
2011,10,16,11,38,10.90
2011,10,16,11,39,10.80
2011,10,16,11,40,10.70
2011,10,16,11,41,10.60
2011,10,16,11,42,10.60
2011,10,16,11,43,10.60
2011,10,16,11,44,10.60
2011,10,16,11,45,10.50
2011,10,16,11,46,10.60
2011,10,16,11,47,10.60
2011,10,16,11,48,10.70
2011,10,16,11,49,10.70
2011,10,16,11,50,10.70
2011,10,16,11,51,10.70
2011,10,16,11,52,10.70
2011,10,16,11,53,10.80
2011,10,16,11,54,10.70
2011,10,16,11,55,10.70
2011,10,16,11,56,10.80
2011,10,16,11,57,10.80
2011,10,16,11,58,10.90
2011,10,16,11,59,11.00
2011,10,16,12,00,11.10
2011,10,16,12,01,11.10
2011,10,16,12,02,11.10
2011,10,16,12,03,11.10
2011,10,16,12,04,11.20
2011,10,16,12,05,11.30
2011,10,16,12,06,11.30
2011,10,16,12,07,11.40
2011,10,16,12,08,11.40
2011,10,16,12,09,11.60
2011,10,16,12,10,11.50
2011,10,16,12,11,11.40
2011,10,16,12,12,11.50
2011,10,16,12,13,11.60
2011,10,16,12,14,11.60
2011,10,16,12,15,11.60
2011,10,16,12,16,11.60
2011,10,16,12,17,11.60
2011,10,16,12,18,11.50
2011,10,16,12,19,11.40
2011,10,16,12,20,11.40
2011,10,16,12,21,11.40
2011,10,16,12,22,11.40
2011,10,16,12,23,11.40
2011,10,16,12,24,11.40
2011,10,16,12,25,11.30
2011,10,16,12,26,11.30
2011,10,16,12,27,11.30
2011,10,16,12,28,11.30
2011,10,16,12,29,11.30
2011,10,16,12,30,11.30
2011,10,16,12,31,11.20
2011,10,16,12,32,11.10
2011,10,16,12,33,10.90
2011,10,16,12,34,10.70
2011,10,16,12,35,10.60
2011,10,16,12,36,10.50
2011,10,16,12,37,10.40
2011,10,16,12,38,10.30
2011,10,16,12,39,10.40
2011,10,16,12,40,10.50
2011,10,16,12,41,10.60
2011,10,16,12,42,10.80
2011,10,16,12,43,10.80
2011,10,16,12,44,10.90
2011,10,16,12,45,10.90
2011,10,16,12,46,10.90
2011,10,16,12,47,10.90
2011,10,16,12,48,10.80
2011,10,16,12,49,10.80
2011,10,16,12,50,10.70
2011,10,16,12,51,10.70
2011,10,16,12,52,10.60
2011,10,16,12,53,10.60
2011,10,16,12,54,10.60
2011,10,16,12,55,10.60
2011,10,16,12,56,10.60
2011,10,16,12,57,10.50
2011,10,16,12,58,10.40
2011,10,16,12,59,10.40
2011,10,16,13,00,10.40
2011,10,16,13,01,10.40
2011,10,16,13,02,10.40
2011,10,16,13,03,10.40
2011,10,16,13,04,10.40
2011,10,16,13,05,10.40
2011,10,16,13,06,10.40
2011,10,16,13,07,10.50
2011,10,16,13,08,10.60
2011,10,16,13,09,10.40
2011,10,16,13,10,10.40
2011,10,16,13,11,10.30
2011,10,16,13,12,10.30
2011,10,16,13,13,10.30
2011,10,16,13,14,10.30
2011,10,16,13,15,10.30
2011,10,16,13,16,10.30
2011,10,16,13,17,10.20
2011,10,16,13,18,10.20
2011,10,16,13,19,10.20
2011,10,16,13,20,10.20
2011,10,16,13,21,10.10
2011,10,16,13,22,10.10
2011,10,16,13,23,10.20
2011,10,16,13,24,10.30
2011,10,16,13,25,10.40
2011,10,16,13,26,10.40
2011,10,16,13,27,10.40
2011,10,16,13,28,10.30
2011,10,16,13,29,10.30
2011,10,16,13,30,10.30
2011,10,16,13,31,10.20
2011,10,16,13,32,10.20
2011,10,16,13,33,10.10
2011,10,16,13,34,10.10
2011,10,16,13,35,10.10
2011,10,16,13,36,10.10
2011,10,16,13,37,10.10
2011,10,16,13,38,10.20
2011,10,16,13,39,10.10
2011,10,16,13,40,10.00
2011,10,16,13,41,10.00
2011,10,16,13,42,10.10
2011,10,16,13,43,10.10
2011,10,16,13,44,10.20
2011,10,16,13,45,10.20
2011,10,16,13,46,10.20
2011,10,16,13,47,10.20
2011,10,16,13,48,10.30
2011,10,16,13,49,10.30
2011,10,16,13,50,10.30
2011,10,16,13,51,10.30
2011,10,16,13,52,10.40
2011,10,16,13,53,10.40
2011,10,16,13,54,10.40
2011,10,16,13,55,10.40
2011,10,16,13,56,10.40
2011,10,16,13,57,10.40
2011,10,16,13,58,10.40
2011,10,16,13,59,10.40
2011,10,16,14,00,10.40
2011,10,16,14,01,10.40
2011,10,16,14,02,10.40
2011,10,16,14,03,10.60
2011,10,16,14,04,10.60
2011,10,16,14,05,10.60
2011,10,16,14,06,10.60
2011,10,16,14,07,10.60
2011,10,16,14,08,10.60
2011,10,16,14,09,10.50
2011,10,16,14,10,10.40
2011,10,16,14,11,10.40
2011,10,16,14,12,10.40
2011,10,16,14,13,10.40
2011,10,16,14,14,10.40
2011,10,16,14,15,10.40
2011,10,16,14,16,10.40
2011,10,16,14,17,10.40
2011,10,16,14,18,10.50
2011,10,16,14,19,10.50
2011,10,16,14,20,10.40
2011,10,16,14,21,10.40
2011,10,16,14,22,10.40
2011,10,16,14,23,10.40
2011,10,16,14,24,10.40
2011,10,16,14,25,10.40
2011,10,16,14,26,10.40
2011,10,16,14,27,10.40
2011,10,16,14,28,10.40
2011,10,16,14,29,10.40
2011,10,16,14,30,10.40
2011,10,16,14,31,10.50
2011,10,16,14,32,10.60
2011,10,16,14,33,10.60
2011,10,16,14,34,10.60
2011,10,16,14,35,10.60
2011,10,16,14,36,10.50
2011,10,16,14,37,10.40
2011,10,16,14,38,10.40
2011,10,16,14,39,10.30
2011,10,16,14,40,10.30
2011,10,16,14,41,10.30
2011,10,16,14,42,10.30
2011,10,16,14,43,10.30
2011,10,16,14,44,10.40
2011,10,16,14,45,10.40
2011,10,16,14,46,10.40
2011,10,16,14,47,10.40
2011,10,16,14,48,10.40
2011,10,16,14,49,10.40
2011,10,16,14,50,10.40
2011,10,16,14,51,10.40
2011,10,16,14,52,10.40
2011,10,16,14,53,10.30
2011,10,16,14,54,10.30
2011,10,16,14,55,10.40
2011,10,16,14,56,10.40
2011,10,16,14,57,10.40
2011,10,16,14,58,10.40
2011,10,16,14,59,10.40
2011,10,16,15,00,10.30
2011,10,16,15,01,10.30
2011,10,16,15,02,10.20
2011,10,16,15,03,10.20
2011,10,16,15,04,10.20
2011,10,16,15,05,10.20
2011,10,16,15,06,10.20
2011,10,16,15,07,10.30
2011,10,16,15,08,10.20
2011,10,16,15,09,10.20
2011,10,16,15,10,10.20
2011,10,16,15,11,10.30
2011,10,16,15,12,10.30
2011,10,16,15,13,10.30
2011,10,16,15,14,10.40
2011,10,16,15,15,10.30
2011,10,16,15,16,10.20
2011,10,16,15,17,10.30
2011,10,16,15,18,10.30
2011,10,16,15,19,10.20
2011,10,16,15,20,10.20
2011,10,16,15,21,10.20
2011,10,16,15,22,10.10
2011,10,16,15,23,10.10
2011,10,16,15,24,10.10
2011,10,16,15,25,10.00
2011,10,16,15,26,9.90
2011,10,16,15,27,9.90
2011,10,16,15,28,9.90
2011,10,16,15,29,9.90
2011,10,16,15,30,9.90
2011,10,16,15,31,9.90
2011,10,16,15,32,9.90
2011,10,16,15,33,9.90
2011,10,16,15,34,9.90
2011,10,16,15,35,9.90
2011,10,16,15,36,9.90
2011,10,16,15,37,9.90
2011,10,16,15,38,10.10
2011,10,16,15,39,10.10
2011,10,16,15,40,10.10
2011,10,16,15,41,10.10
2011,10,16,15,42,10.10
2011,10,16,15,43,10.10
2011,10,16,15,44,10.10
2011,10,16,15,45,10.10
2011,10,16,15,46,10.10
2011,10,16,15,47,10.10
2011,10,16,15,48,10.10
2011,10,16,15,49,10.10
2011,10,16,15,50,10.00
2011,10,16,15,51,9.90
2011,10,16,15,52,9.90
2011,10,16,15,53,9.90
2011,10,16,15,54,9.90
2011,10,16,15,55,9.90
2011,10,16,15,56,10.00
2011,10,16,15,57,10.10
2011,10,16,15,58,10.00
2011,10,16,15,59,9.90
2011,10,16,16,00,10.00
2011,10,16,16,01,10.10
2011,10,16,16,02,10.10
2011,10,16,16,03,10.10
2011,10,16,16,04,10.10
2011,10,16,16,05,10.10
2011,10,16,16,06,10.00
2011,10,16,16,07,9.90
2011,10,16,16,08,9.90
2011,10,16,16,09,9.90
2011,10,16,16,10,9.90
2011,10,16,16,11,9.90
2011,10,16,16,12,9.90
2011,10,16,16,13,9.90
2011,10,16,16,14,9.90
2011,10,16,16,15,10.00
2011,10,16,16,16,9.90
2011,10,16,16,17,9.90
2011,10,16,16,18,9.90
2011,10,16,16,19,9.80
2011,10,16,16,20,9.80
2011,10,16,16,21,9.80
2011,10,16,16,22,9.80
2011,10,16,16,23,9.70
2011,10,16,16,24,9.70
2011,10,16,16,25,9.70
2011,10,16,16,26,9.70
2011,10,16,16,27,9.70
2011,10,16,16,28,9.70
2011,10,16,16,29,9.70
2011,10,16,16,30,9.70
2011,10,16,16,31,9.70
2011,10,16,16,32,9.70
2011,10,16,16,33,9.70
2011,10,16,16,34,9.70
2011,10,16,16,35,9.70
2011,10,16,16,36,9.70
2011,10,16,16,37,9.80
2011,10,16,16,38,9.80
2011,10,16,16,39,9.80
2011,10,16,16,40,9.80
2011,10,16,16,41,9.70
2011,10,16,16,42,9.70
2011,10,16,16,43,9.70
2011,10,16,16,44,9.70
2011,10,16,16,45,9.70
2011,10,16,16,46,9.70
2011,10,16,16,47,9.70
2011,10,16,16,48,9.70
2011,10,16,16,49,9.70
2011,10,16,16,50,9.70
2011,10,16,16,51,9.70
2011,10,16,16,52,9.70
2011,10,16,16,53,9.70
2011,10,16,16,54,9.70
2011,10,16,16,55,9.80
2011,10,16,16,56,9.80
2011,10,16,16,57,9.80
2011,10,16,16,58,9.80
2011,10,16,16,59,9.70
2011,10,16,17,00,9.70
2011,10,16,17,01,9.70
2011,10,16,17,02,9.70
2011,10,16,17,03,9.70
2011,10,16,17,04,9.70
2011,10,16,17,05,9.70
2011,10,16,17,06,9.70
2011,10,16,17,07,9.70
2011,10,16,17,08,9.70
2011,10,16,17,09,9.70
2011,10,16,17,10,9.70
2011,10,16,17,11,9.60
2011,10,16,17,12,9.60
2011,10,16,17,13,9.60
2011,10,16,17,14,9.60
2011,10,16,17,15,9.60
2011,10,16,17,16,9.60
2011,10,16,17,17,9.60
2011,10,16,17,18,9.50
2011,10,16,17,19,9.50
2011,10,16,17,20,9.50
2011,10,16,17,21,9.50
2011,10,16,17,22,9.50
2011,10,16,17,23,9.50
2011,10,16,17,24,9.50
2011,10,16,17,25,9.60
2011,10,16,17,26,9.60
2011,10,16,17,27,9.60
2011,10,16,17,28,9.60
2011,10,16,17,29,9.70
2011,10,16,17,30,9.70
2011,10,16,17,31,9.60
2011,10,16,17,32,9.60
2011,10,16,17,33,9.60
2011,10,16,17,34,9.50
2011,10,16,17,35,9.50
2011,10,16,17,36,9.50
2011,10,16,17,37,9.40
2011,10,16,17,38,9.40
2011,10,16,17,39,9.40
2011,10,16,17,40,9.30
2011,10,16,17,41,9.30
2011,10,16,17,42,9.30
2011,10,16,17,43,9.30
2011,10,16,17,44,9.20
2011,10,16,17,45,9.20
2011,10,16,17,46,9.20
2011,10,16,17,47,9.20
2011,10,16,17,48,9.20
2011,10,16,17,49,9.20
2011,10,16,17,50,9.20
2011,10,16,17,51,9.10
2011,10,16,17,52,9.10
2011,10,16,17,53,9.10
2011,10,16,17,54,9.10
2011,10,16,17,55,9.10